Springfield, MO

1:31 PM CDT on May 24, 2018 (GMT -0500)
Springfield-Branson Regional

Weather History for KSGF - September, 2013

Change the Weather History Date:

Friday, September 27, 2013

  Actual Average Record
Temperature  
Mean Temperature 75 °F 64 °F  
Max Temperature 84 °F 75 °F 91 °F (1953)
Min Temperature 65 °F 53 °F 30 °F (1942)
Degree Days  
Heating Degree Days 0 4  
Month to date heating degree days 13 40  
Since 1 July heating degree days 13 42  
Cooling Degree Days 10 3  
Month to date cooling degree days 226 164  
Year to date cooling degree days 1369 1350  
Growing Degree Days 24 (Base 50)    
Moisture  
Dew Point 62 °F    
Average Humidity 68    
Maximum Humidity 93    
Minimum Humidity 43    
Precipitation  
Precipitation 0.00 in 0.16 in 1.78 in (1936)
Month to date precipitation 1.85 4.18  
Year to date precipitation 40.00 34.29  
Snow  
Snow 0.00 in - - ()
Month to date snowfall 0.0  
Since 1 July snowfall 0.0  
Since 1 September snowfall 0.0  
Snow Depth 0.00 in    
Sea Level Pressure  
Sea Level Pressure 29.96 in    
Wind  
Wind Speed 12 mph (SSE)    
Max Wind Speed 21 mph    
Max Gust Speed 26 mph    
Visibility 10 miles    
Events      
T = Trace of Precipitation, MM = Missing Value Source: NWS Daily Summary

Daily Weather History Graph

Daily Weather History Graph

Search for Another Location

Airport or City:

Astronomy

Sep. 27, 2013 Rise Set
Actual Time 7:05 AM CDT 7:02 PM CDT
Civil Twilight 6:39 AM CDT 7:28 PM CDT
Nautical Twilight 6:09 AM CDT 7:58 PM CDT
Astronomical Twilight 5:38 AM CDT 8:29 PM CDT
Moon 12:09 AM CDT (9/27) 2:34 PM CDT (9/27)
Length of Visible Light 12h 48m
Length of Day
11h 56m
Last Quarter, 45% of the Moon is Illuminated
Sep 27
Last Quarter
Oct 4
New
Oct 11
First Quarter
Oct 18
Full
Oct 26
Last Quarter

Hourly Weather History & Observations

Time (CDT) Temp. Heat Index Dew Point Humidity Pressure Visibility Wind Dir Wind Speed Gust Speed Precip Events Conditions
12:52 AM 68.0 °F - 62.1 °F 81% 29.95 in 10.0 mi SE 11.5 mph - N/A   Clear
1:52 AM 66.9 °F - 62.1 °F 84% 29.96 in 10.0 mi SE 10.4 mph - N/A   Clear
2:52 AM 66.9 °F - 62.1 °F 84% 29.96 in 10.0 mi SSE 8.1 mph - N/A   Clear
3:52 AM 66.0 °F - 62.1 °F 87% 29.97 in 10.0 mi SE 6.9 mph - N/A   Clear
4:52 AM 64.9 °F - 62.1 °F 90% 29.98 in 10.0 mi SSE 9.2 mph - N/A   Clear
5:52 AM 66.0 °F - 62.1 °F 87% 29.99 in 10.0 mi SSE 10.4 mph - N/A   Clear
6:52 AM 64.9 °F - 62.1 °F 90% 29.99 in 10.0 mi SSE 9.2 mph - N/A   Clear
7:52 AM 66.0 °F - 62.1 °F 87% 30.01 in 10.0 mi SSE 11.5 mph - N/A   Clear
8:52 AM 69.1 °F - 64.0 °F 84% 30.02 in 10.0 mi SSE 12.7 mph - N/A   Clear
9:52 AM 73.9 °F - 64.0 °F 71% 30.02 in 10.0 mi SSE 15.0 mph - N/A   Clear
10:52 AM 77.0 °F - 63.0 °F 62% 30.02 in 10.0 mi South 17.3 mph - 0.00 in   Clear
11:52 AM 79.0 °F - 62.1 °F 56% 30.00 in 10.0 mi South 16.1 mph - 0.00 in   Clear
12:52 PM 82.0 °F 82.7 °F 61.0 °F 49% 29.98 in 10.0 mi SSE 16.1 mph - N/A   Clear
1:52 PM 82.9 °F 83.3 °F 61.0 °F 47% 29.96 in 10.0 mi SSE 15.0 mph - N/A   Clear
2:52 PM 82.9 °F 83.3 °F 61.0 °F 47% 29.94 in 10.0 mi SE 12.7 mph - N/A   Clear
3:52 PM 82.0 °F 82.0 °F 57.9 °F 44% 29.93 in 10.0 mi South 12.7 mph - N/A   Clear
4:52 PM 82.9 °F 82.4 °F 57.0 °F 41% 29.92 in 10.0 mi SSE 13.8 mph - 0.00 in   Clear
5:52 PM 81.0 °F 81.3 °F 59.0 °F 47% 29.93 in 10.0 mi SE 15.0 mph - N/A   Clear
6:52 PM 77.0 °F - 60.1 °F 56% 29.93 in 10.0 mi SSE 9.2 mph - N/A   Clear
7:52 PM 75.0 °F - 62.1 °F 64% 29.93 in 10.0 mi SSE 10.4 mph - N/A   Clear
8:52 PM 73.9 °F - 62.1 °F 66% 29.93 in 10.0 mi SSE 11.5 mph - N/A   Clear
9:52 PM 72.0 °F - 63.0 °F 73% 29.94 in 10.0 mi SSE 9.2 mph - N/A   Clear
10:52 PM 71.1 °F - 62.1 °F 73% 29.94 in 10.0 mi SSE 12.7 mph - N/A   Clear
11:52 PM 71.1 °F - 62.1 °F 73% 29.94 in 10.0 mi SSE 12.7 mph - N/A   Clear